Regional Weather Roundup
Issued by NWS Wakefield, VA

Home | Current Version | Previous Version | Text Only | Print | Product List | Glossary Off
Versions: 1 2 3 4 5 6 7 8 9 10 11 12 13 14 15 16 17 18 19 20 21 22 23 24 25 26 27 28 29 30 31 32 33 34 35 36

000
ASUS41 KAKQ 220410
RWRAKQ

REGIONAL WEATHER ROUNDUP
NATIONAL WEATHER SERVICE WAKEFIELD VA
1200 AM EDT WED OCT 22 2014

Note: "fair" indicates few or no clouds below 12,000 feet with no
significant weather and/or obstructions to visibility. * = Denotes
station may not report precipitation (e.g., rain,snow,etc.),
thunder or fog.

VAZ042-051-052>054-056-220500-
NORTHERN VIRGINIA

CITY           SKY/WX    TMP DP  RH WIND       PRES   REMARKS
WASH NATIONAL  LGT RAIN  55  50  83 N9        29.90F
DULLES         LGT RAIN  51  50  96 N7        29.92F
FORT BELVOIR   NOT AVBL
QUANTICO       CLOUDY    54  49  83 N13G24    29.91F
FREDERICKSBRG* MOCLDY    54  53  98 CALM      29.90F
STAFFORD*      MOCLDY    52  52 100 N6        29.94F
WARRENTON      FOG       51  51 100 CALM      29.91F VSB 1/2
CULPEPER*      CLOUDY    52  50  93 CALM      29.93S FOG
MANASSAS*      CLOUDY    52  52 100 N5        29.92S
LEESBURG*      CLOUDY    52  52 100 N3        29.93F
WINCHESTER     CLOUDY    52  43  71 NW7       29.94S
FRONT ROYAL*   CLOUDY    50  45  81 NW6       29.93F
LURAY*         CLOUDY    54  46  76 N3        29.95S
$$

VAZ048-049-060>072-079>083-220500-
CENTRAL AND SOUTH CENTRAL VIRGINIA...AND NORTH CENTRAL NORTH CAROLINA

CITY           SKY/WX    TMP DP  RH WIND       PRES   REMARKS
RICHMOND       CLOUDY    56  51  84 NW9       29.89F
CHESTERFIELD*  CLOUDY   N/A N/A N/A N7        29.91F
PETERSBURG*    CLOUDY    55  48  76 N7        29.90F
HANOVER        MOCLDY    54  50  86 NW6       29.92F
TAPPAHANNOCK*  CLOUDY    54  49  84 W3        29.90S
CHARLOTTSVILLE LGT RAIN  53  45  74 NW6       29.92F
ORANGE*        DRIZZLE   54  50  87 CALM      29.93F
LOUISA*        CLOUDY    54  50  87 NW3       29.90F
FARMVILLE*     CLOUDY    55  46  71 NW3       29.90F
CREWE*         CLOUDY    55  48  76 CALM      29.91F
FORT PICKETT*  CLOUDY    55  49  80 N6        29.90F
LUNENBURG*     CLOUDY    56  45  68 CALM      29.91S
SOUTH HILL*    CLOUDY    57  45  62 NW6       29.95F
LAWRENCEVILLE* CLOUDY    55  48  77 NW3       29.89F
ROANOKE RAPIDS MOCLDY    55  46  71 NW7       29.89F
RALEIGH        MOCLDY    57  39  51 NW8       29.94F
$$

VAZ088>098-220500-
SOUTHEAST VIRGINIA

CITY           SKY/WX    TMP DP  RH WIND       PRES   REMARKS
NORFOLK        CLOUDY    61  52  72 NW8       29.84F
VIRGINIA BEACH CLOUDY    62  53  72 NW13      29.83F
NORFOLK NAVAL  CLOUDY    61  52  72 NW12      29.86F
WEST POINT*    CLOUDY    57  52  82 NW6       29.89F
NEWPORT NEWS   CLOUDY    60  51  72 NW9       29.86F
LANGLEY AFB    CLOUDY    58  55  87 NW10      29.85F
FORT EUSTIS    CLOUDY    58  51  79 NW9       29.85F
WILLIAMSBURG*  CLOUDY    57  52  82 N6        29.87F
HR EXEC AP*    CLOUDY    55  52  88 NW5       29.87F
FRANKLIN*      MOCLDY    55  52  88 NW3       29.87F
WAKEFIELD      LGT RAIN  57  50  77 N6        29.87F
$$

VAZ020-022-025-037-045-220500-
WEST CENTRAL AND SOUTHWEST VIRGINIA

CITY           SKY/WX    TMP DP  RH WIND       PRES   REMARKS
STAUNTON*      CLOUDY    52  42  69 N5        29.97S
HOT SPRINGS VA CLOUDY    39  38  94 NW14G20   29.94S
LYNCHBURG      CLOUDY    53  41  63 NW9G18    29.96S
DANVILLE       CLOUDY    54  40  59 W9        29.96F
SOUTH BOSTON*  NOT AVBL
MARTINSVILLE   MOCLDY    52  40  64 NW10G17   30.00F
ROANOKE        CLOUDY    51  39  63 NW8       30.00F
BLACKSBURG     CLOUDY    46  43  87 NW8       30.03S
DUBLIN*        CLOUDY    47  42  81 W6        30.03F
MARION*        DRIZZLE   45  39  79 W8        30.07F
HILLSVILLE*    CLOUDY    44  37  76 NW12G17   30.01S
RICHLANDS*     CLOUDY    46  43  90 NW5       30.07S
WISE*          CLOUDY    45  37  76 NW3       30.09F
ABINGDON*      CLOUDY    48  40  72 NW7       30.08F
$$

MDZ021>025-VAZ099-100-220500-
SOUTHERN MARYLAND AND THE DELMARVA PENINSULA

CITY           SKY/WX    TMP DP  RH WIND       PRES   REMARKS
PATUXENT RIVER CLOUDY    56  52  86 NW14      29.87S
BAY BRIDGE APT LGT RAIN  55  54  94 N12G18    29.88F
LEONARDTOWN    CLOUDY    54  50  87 CALM      29.89S
DOVER          LGT RAIN  56  54  92 W8        29.84S
GEORGETOWN     LGT RAIN  56  54  93 W6        29.86F FOG
EASTON         RAIN      57  57 100 CALM      29.92S
CAMBRIDGE      CLOUDY    55  54  94 N7        29.86F
SALISBURY      RAIN      58  55  90 NW9       29.85F FOG
OCEAN CITY     LGT RAIN  56  54  93 NW9       29.84F FOG
WALLOPS ISLAND CLOUDY    57  55  93 N7        29.83F
ACCOMACK*      MOCLDY    55  52  88 NW5       29.84F
$$

NCZ012>017-030>032-220500-
EASTERN NORTH CAROLINA

CITY           SKY/WX    TMP DP  RH WIND       PRES   REMARKS
ELIZABETH CITY RAIN      60  52  74 W10       29.86S
AHOSKIE*       CLOUDY    57  47  71 CALM      29.87F
EDENTON*       CLOUDY    57  54  89 NW5       29.87F
CURRITUCK*     CLOUDY    62  49  62 W6        29.85F
KILL DEVIL HLS MOCLDY    63  62  94 CALM      29.81S
MANTEO         MOCLDY    64  61  90 W3        29.82F
CAPE HATTERAS  CLEAR     67  62  84 W7        29.83F
TARBORO*       CLOUDY    59  48  67 NW6       29.90S
GOLDSBORO      MOCLDY    62  50  65 NW12      29.88S
WASHINGTON     MOCLDY    58  53  83 CALM      29.88F
GREENVILLE     MOCLDY    61  50  67 CALM      29.90F
NEW BERN       MOCLDY    64  51  62 N12       29.87S
WILMINGTON     CLEAR     62  58  86 W6        29.87F
$$

VAZ048-220500-
ELSEWHERE

CITY           SKY/WX    TMP DP  RH WIND       PRES   REMARKS
HARRISBURG PA  CLOUDY    54  48  80 NW7       29.91F
BALTIMORE      LGT RAIN  53  51  93 NW6       29.89F FOG
ANNAPOLIS      CLOUDY    56  52  86 NW8       29.88F
ANDREWS AFB    RAIN      53  51  95 N12       29.88F
WILMINGTON DE  CLOUDY    55  51  86 NW9       29.88S
PHILADELPHIA   MOCLDY    59  50  72 NE10      29.88S
WILDWOOD NJ*   MOCLDY    54  48  82 N5        29.85S
ATLANTIC CITY  PTCLDY    53  51  93 N6        29.85F
HENDERSON NC   CLOUDY    55  40  57 NW6       29.93S
GREENSBORO     PTCLDY    51  39  63 NW8       29.98S
ROCKY MOUNT    CLOUDY    60  42  51 NW10      29.90F
FAYETTEVILLE   PTCLDY    61  43  51 N15G23    29.92S
CHARLOTTE      CLEAR     54  37  52 N10       29.99S
$$

VAZ100-220500-
MARINE

STATION/POSITION TIME  TEMP    WIND        PRES    WAVE   SWELL
                       AIR SEA DIR/SP/G            HT/PER HT/PER
                 (UTC) (F)     (DEG/KT/KT) (MB)    (FT/S) (FT/S)
44066 TX TWR #4  0400   63 66   50/ 12/ 14 1011.1F   4/ 6   3/ 6
CAPE MAY NJ      0400   58 67   20/  3/  4 1009.8F
LEWES DE         0400   55 64  290/ 18/ 23 1010.6F
15NM E FENWICK I 0400   66 66  240/ 10/ 21 1009.8F   3/ 7   2/ 7
OCEAN-CITY-INLET 0400   58 66  330/ 13/ 17 1009.7F
WACHAPREAGUE VA  0400   57 65  360/  3/  5 1010.2F
THOMAS POINT MD  0400   55 64  310/ 10/ 12 1013.0F
GOOSES REEF MD   0400   57     350/ 16/ 19 1011.8F
COVE POINT MD    0400   57     350/ 18/ 20 1011.2S
SOLOMONS ISLAND  0400      66                N/A
BISHOPS HEAD MD  0400   56 62  360/  7/ 11 1010.2F
PINEY POINT MD   0400          360/ 12/ 14   N/A
POTOMAC MD       0400   57     330/ 10/ 14 1010.5R
CAMBRIDGE MD     0400   58 63  350/ 10/ 12 1011.1F
LEWISETTA VA     0400   57 65  350/ 12/ 16 1011.0F
RAPPAHANNOCK LGT 0400          350/ 17/ 19 1010.8F
STINGRAY PT      0400   59     340/ 12/ 16 1011.6R
YORK RVR RNG VA  0400   58     340/ 15/ 18 1010.5F
YORKTOWN VA      0400   59 67  330/ 14/ 17 1010.8F
JAMESTOWN VA     0400   57     350/ 12/ 16   N/A
DOMINION TERM VA 0400   61     140/  2/  4 1010.6F
KIPTOPEKE VA     0400      70  360/ 15/ 20   N/A
CHES BAY BRIDGE  0400   61 68  320/ 19/ 22 1009.7F
CHESAPEAKE LGHT  0300   68     270/  7/  8 1010.5F
WILLOUBY STN VA  0400   60     340/ 14/ 16 1009.1F
S CRANEY ISL VA  0400          310/ 10/ 15 1010.2F
CAPE HENRY BUOY  0400      69                N/A     2/ 9
1ST LANDING BUOY 0400   62     330/ 17/ 21 1010.2F
CAPE CHARLES BUO 0400      69                N/A     2/ 9   2/ 9
64NM E OF VA BCH 0400   70 69  270/  8/ 10 1009.4F   4/ 6   3/ 6
DUCK PIER NC     0400   66 69  280/  8/  8 1009.4R
44100 DUCK FRF   0400      71                N/A     2/11
44056 DUCK FRF   0300                        N/A     2/12   2/12
OREGON INLET NC  0400   66 69  260/  5/  7 1009.6F
HATTERAS NC      0400   69 72  260/ 10/ 13 1010.3F
DIAMOND SHLS NC  0400   72     260/ 14/ 17 1010.0F   4/ 6   2/10
CAPE LOOKOUT NC  0300   70     260/ 11/ 14 1010.8F
$$



USA.gov is the U.S. government's official web portal to all federal, state and local government web resources and services.